La Vergne, TN

10:51 PM CST on February 08, 2016 (GMT -0600)
Smyrna

Weather History for KMQY - July, 2013

Change the Weather History Date:

Wednesday, July 17, 2013

  Actual Average Record
Temperature  
Mean Temperature 84 °F -  
Max Temperature 97 °F 86 °F 99 °F (2006)
Min Temperature 72 °F 69 °F 55 °F (2014)
Cooling Degree Days 18    
Growing Degree Days 34 (Base 50)    
Moisture  
Dew Point 73 °F    
Average Humidity 72    
Maximum Humidity 100    
Minimum Humidity 47    
Precipitation  
Precipitation 0.00 in - - ()
Sea Level Pressure  
Sea Level Pressure 30.27 in    
Wind  
Wind Speed 2 mph (NNE)    
Max Wind Speed 10 mph    
Max Gust Speed -    
Visibility 10 miles    
Events      
Averages and records for this station are not official NWS values.
T = Trace of Precipitation, MM = Missing Value Source: NWS Daily Summary

Daily Weather History Graph

Daily Weather History Graph

Search for Another Location

Airport or City:

Trip Planner

Search our weather history database for the weather conditions in past years. The results will help you decide how hot, cold, wet, or windy it might be!

Date:

Astronomy

Jul. 17, 2013 Rise Set
Actual Time 5:42 AM CDT 8:01 PM CDT
Civil Twilight 5:13 AM CDT 8:31 PM CDT
Nautical Twilight 4:37 AM CDT 9:07 PM CDT
Astronomical Twilight 3:57 AM CDT 9:46 PM CDT
Moon 2:52 PM CDT (7/17) 12:45 AM CDT (7/17)
Length of Visible Light 15h 17m
Length of Day
14h 19m
Waxing Gibbous, 67% of the Moon is Illuminated
Jul 17
Waxing Gibbous
Jul 22
Full
Jul 29
Last Quarter
Aug 6
New
Aug 14
First Quarter

Hourly Weather History & Observations

Time (CDT) Temp. Heat Index Dew Point Humidity Pressure Visibility Wind Dir Wind Speed Gust Speed Precip Events Conditions
12:56 AM 75.9 °F - 72.9 °F 90% 30.30 in 10.0 mi Calm Calm - N/A   Clear
1:56 AM 75.9 °F - 72.9 °F 90% 30.29 in 10.0 mi Calm Calm - N/A   Clear
2:56 AM 74.8 °F - 73.9 °F 97% 30.30 in 10.0 mi Calm Calm - N/A   Clear
3:56 AM 73.9 °F - 73.9 °F 100% 30.30 in 10.0 mi Calm Calm - N/A   Clear
4:56 AM 72.9 °F - 72.9 °F 100% 30.30 in 10.0 mi Calm Calm - N/A   Clear
5:56 AM 72.9 °F - 72.0 °F 97% 30.32 in 10.0 mi Calm Calm - N/A   Clear
6:56 AM 77.0 °F - 73.9 °F 90% 30.33 in 10.0 mi Calm Calm - N/A   Clear
7:56 AM 81.0 °F 86.7 °F 74.8 °F 82% 30.33 in 10.0 mi Calm Calm - N/A   Clear
8:56 AM 83.8 °F 91.4 °F 74.8 °F 74% 30.33 in 10.0 mi North 3.5 mph - N/A   Clear
9:56 AM 88.0 °F 97.5 °F 74.8 °F 65% 30.33 in 10.0 mi Calm Calm - N/A   Clear
10:56 AM 91.9 °F 102.6 °F 74.8 °F 57% 30.32 in 10.0 mi NE 9.2 mph - N/A   Scattered Clouds
11:56 AM 93.9 °F 104.0 °F 73.9 °F 52% 30.31 in 10.0 mi NE 8.1 mph - N/A   Scattered Clouds
12:56 PM 91.9 °F 100.1 °F 72.9 °F 53% 30.30 in 10.0 mi NNE 10.4 mph - N/A   Mostly Cloudy
1:56 PM 93.9 °F 102.7 °F 72.9 °F 50% 30.27 in 10.0 mi NNE 10.4 mph - N/A   Scattered Clouds
2:56 PM 93.9 °F 102.1 °F 72.0 °F 49% 30.24 in 10.0 mi Variable 4.6 mph - N/A   Scattered Clouds
3:56 PM 95.0 °F 103.2 °F 72.0 °F 47% 30.22 in 10.0 mi North 8.1 mph - N/A   Clear
4:56 PM 95.0 °F 103.2 °F 72.0 °F 47% 30.20 in 10.0 mi NNE 9.2 mph - N/A   Partly Cloudy
5:56 PM 93.9 °F 102.7 °F 72.9 °F 50% 30.21 in 10.0 mi NNE 8.1 mph - N/A   Partly Cloudy
6:56 PM 88.0 °F 93.8 °F 70.9 °F 57% 30.22 in 9.0 mi East 5.8 mph - N/A   Clear
7:56 PM 83.8 °F 89.2 °F 72.0 °F 67% 30.22 in 10.0 mi Calm Calm - N/A   Clear
8:56 PM 82.9 °F 88.5 °F 72.9 °F 71% 30.21 in 10.0 mi Calm Calm - N/A   Clear
9:56 PM 81.0 °F 86.2 °F 73.9 °F 79% 30.23 in 10.0 mi Calm Calm - N/A   Clear
10:56 PM 81.0 °F 86.2 °F 73.9 °F 79% 30.23 in 10.0 mi Calm Calm - N/A   Clear
11:56 PM 79.9 °F - 73.9 °F 82% 30.21 in 10.0 mi Calm Calm - N/A   Clear